This is the latest recevied weather packets stored in our database for station/object DELTON-WX. If no packets are shown the sender has not sent any weather packets the latest 10 day(s).
| Time | Temp. | Humidity | Pressure | Rain* | Wind** | Luminosity | Snow |
|---|---|---|---|---|---|---|---|
| 1777896950 | 9.44° C | 79% | 971.1 hPa | 0 mm | - | - | - |
| 1777896088 | 8.89° C | 79% | 971.1 hPa | 0 mm | - | - | - |
| 1777895150 | 8.33° C | 82% | 969.9 hPa | 0 mm | - | - | - |
| 1777894267 | 7.78° C | 87% | 970.4 hPa | 0 mm | - | - | - |
| 1777893351 | 7.22° C | 87% | 970.4 hPa | 0 mm | - | - | - |
| 1777892486 | 7.22° C | 87% | 970.4 hPa | 0 mm | - | - | - |
| 1777891551 | 6.67° C | 83% | 970.5 hPa | 0 mm | - | - | - |
| 1777890670 | 7.22° C | 84% | 970.4 hPa | 0 mm | - | - | - |
| 1777889747 | 7.22° C | 84% | 970.4 hPa | 0 mm | - | - | - |
| 1777888886 | 7.22° C | 84% | 970.4 hPa | 0 mm | - | - | - |
| 1777887950 | 7.22° C | 81% | 970.8 hPa | 0 mm | - | - | - |
| 1777887069 | 7.22° C | 82% | 970.6 hPa | 0 mm | - | - | - |
| 1777886149 | 7.22° C | 82% | 970.6 hPa | 0 mm | - | - | - |
| 1777885288 | 7.22° C | 82% | 970 hPa | 0 mm | - | - | - |
| 1777884350 | 7.22° C | 80% | 970.7 hPa | 0 mm | - | - | - |
| 1777883463 | 7.78° C | 80% | 970.7 hPa | 0 mm | - | - | - |
| 1777882549 | 7.78° C | 80% | 970.7 hPa | 0 mm | - | - | - |
| 1777881681 | 7.78° C | 84% | 970.8 hPa | 0 mm | - | - | - |
| 1777880749 | 7.78° C | 78% | 971.7 hPa | 0 mm | - | - | - |
| 1777879867 | 7.78° C | 78% | 971.7 hPa | 0 mm | - | - | - |
| 1777878950 | 7.78° C | 78% | 971.6 hPa | 0 mm | - | - | - |
| 1777878080 | 7.78° C | 78% | 971.6 hPa | 0 mm | - | - | - |
| 1777877149 | 7.78° C | 78% | 973 hPa | 0 mm | - | - | - |
| 1777876267 | 7.78° C | 78% | 973 hPa | 0 mm | - | - | - |
| 1777875349 | 7.78° C | 78% | 973 hPa | 0 mm | - | - | - |
* Rain latest hour (hover to see other rain measurements)
** Current wind speed in m/s (hover to see current wind gust speed)